Regional Weather Roundup
Issued by NWS

Home | Current Version | Previous Version | Graphics & Text | Print | Product List | Glossary On
Versions: 1 2 3 4 5 6 7 8 9 10 11 12 13 14 15 16 17 18 19 20 21 22 23 24 25 26 27 28
000
ASUS45 KCYS 010410
RWRWY

WYOMING REGIONAL WEATHER ROUNDUP
NATIONAL WEATHER SERVICE CHEYENNE WY
1000 PM MDT FRI OCT 31 2014

NOTE:  "FAIR" INDICATES FEW OR NO CLOUDS BELOW 12,000 FEET
WITH NO SIGNIFICANT WEATHER AND/OR OBSTRUCTIONS TO VISIBILITY.

WYZ001-010500-
YELLOWSTONE NATIONAL PARK

CITY           SKY/WX    TMP DP  RH WIND       PRES   REMARKS
LK YELLOWSTONE   N/A     29  25  85 CALM      30.02S
W YELLOWSTONE  NOT AVBL

$$
WYZ002>013-054>058-071-098>099-010500-
NORTHERN WYOMING

CITY           SKY/WX    TMP DP  RH WIND       PRES   REMARKS
JACKSON        PTCLDY    36  25  64 N3        29.95F
CODY           MOCLDY    52  25  35 SW7       29.86
GREYBULL       CLOUDY    55  25  31 SW7       29.81R
WORLAND        CLOUDY    51  24  34 CALM      29.84R
SHERIDAN       PTCLDY    35  28  75 CALM      29.82F
BUFFALO        PTCLDY    44  28  53 W5        29.85F
GILLETTE       MOCLDY    46  30  53 S21       29.86F
HULETT         FAIR      54  30  40 SW7G16    29.88S
NEWCASTLE      FAIR      46  28  49 E15       29.97

$$
WYZ014>020-022>026-101>103-010500-
CENTRAL WYOMING

CITY           SKY/WX    TMP DP  RH WIND       PRES   REMARKS
BIG PINEY      PTCLDY    35  19  52 NE3       30.00F
PINEDALE       PTCLDY    32  21  64 CALM      30.02S
DUBOIS         FAIR      37  23  56 NW10      30.00R WCI  30
LANDER         MOCLDY    45  29  53 NW6       29.92S
RIVERTON       MOCLDY    45  24  43 W3        29.94S
CASPER         PTCLDY    43  21  41 SW7       29.93S
DOUGLAS        PTCLDY    46  29  51 SE14      29.96F

$$
WYZ021-027>030-104>119-010500-
SOUTHERN WYOMING

CITY           SKY/WX    TMP DP  RH WIND       PRES   REMARKS
EVANSTON       MOCLDY    49  24  37 S7        29.98F
KEMMERER       PTCLDY    48  19  32 CALM      30.00F
FORT BRIDGER   FAIR      53  25  34 S14       30.01F
ROCK SPRINGS   PTCLDY    50  24  36 S10       30.00S
DIXON          FAIR      47  28  48 CALM      30.08S
RAWLINS        PTCLDY    55  26  32 VRB3G18   30.03F
SARATOGA       FAIR      50  27  40 SE12      30.07F
LARAMIE        CLEAR     39  25  57 S14       30.08F WCI  31
CHEYENNE       CLEAR     37  27  67 S8        30.08F WCI  31
TORRINGTON     CLEAR     42  28  57 SE13      30.02F
PINE BLUFFS    FAIR      41  30  65 S12G20    30.08F

$$



USA.gov is the U.S. government's official web portal to all federal, state and local government web resources and services.